EW9290 Weather Reports


Display with metric or nautical units.
time (UTC)temp
F
wind
direction
speed
MPH
gust
MPH
rain 1hr
in
rain 24hr
in
rain mn
in
humidity
%
barometer
mb
20260905232847 70 23 3.0 3.0 0.00 0.13 0.13 71 1012.1
20260905232343 70 21 2.0 2.0 0.00 0.13 0.13 71 1012.3
20260905231839 70 32 4.0 6.0 0.00 0.13 0.13 71 1012.2
20260905231338 70 23 4.0 5.0 0.00 0.13 0.13 72 1012.3
20260905230836 70 28 4.0 6.0 0.00 0.13 0.13 74 1012.1
20260905230333 71 359 3.0 5.0 0.00 0.13 0.13 74 1012.2
20260905225832 71 26 5.0 6.0 0.00 0.13 0.13 74 1012.2
20260905225328 71 44 3.0 6.0 0.00 0.13 0.13 76 1012.0
20260905224827 71 0 5.0 6.0 0.00 0.13 0.13 76 1012.0
20260905224324 71 25 3.0 3.0 0.00 0.13 0.13 75 1011.9
20260905223818 71 62 4.0 6.0 0.00 0.13 0.13 74 1011.9
20260905223316 71 13 5.0 7.0 0.00 0.13 0.13 74 1011.8
20260905222811 72 20 5.0 7.0 0.00 0.13 0.13 74 1012.1
20260905222309 72 26 9.0 10.0 0.00 0.13 0.13 74 1011.8
20260905221806 72 15 3.0 3.0 0.00 0.13 0.13 75 1011.7
20260905221303 72 5 5.0 6.0 0.00 0.13 0.13 75 1011.8
20260905220758 73 30 7.0 8.0 0.00 0.13 0.13 74 1011.9
20260905220254 73 12 6.0 9.0 0.00 0.13 0.13 75 1011.6
20260905215753 73 56 7.0 8.0 0.00 0.13 0.13 73 1012.0
20260905215249 73 40 3.0 3.0 0.00 0.13 0.13 75 1011.6
20260905214744 72 8 6.0 6.0 0.00 0.13 0.13 76 1011.7
20260905214240 73 31 3.0 3.0 0.00 0.13 0.13 77 1011.5
20260905213735 73 2 7.0 8.0 0.00 0.13 0.13 76 1011.4
20260905213232 73 16 6.0 8.0 0.00 0.13 0.13 77 1011.5
20260905212727 73 5 2.0 3.0 0.00 0.13 0.13 78 1011.2
20260905212226 72 25 3.0 3.0 0.00 0.13 0.13 79 1011.6
20260905211725 73 2 3.0 3.0 0.00 0.13 0.13 80 1011.4
20260905211221 73 35 5.0 6.0 0.00 0.13 0.13 80 1011.5
20260905210718 73 31 5.0 7.0 0.00 0.13 0.13 79 1011.4
20260905210217 72 23 8.0 9.0 0.00 0.13 0.13 80 1011.3
20260905205716 73 15 5.0 6.0 0.00 0.13 0.13 80 1011.2
20260905205211 73 339 7.0 9.0 0.00 0.13 0.13 81 1011.3
20260905204710 73 29 4.0 5.0 0.00 0.13 0.13 83 1011.5
20260905204206 73 45 3.0 5.0 0.00 0.13 0.13 83 1011.5
20260905203700 73 18 5.0 6.0 0.00 0.13 0.13 83 1011.5
20260905203156 74 44 4.0 6.0 0.00 0.13 0.13 82 1011.5
20260905202651 74 30 6.0 8.0 0.00 0.13 0.13 82 1011.5
20260905202146 74 30 3.0 5.0 0.00 0.13 0.13 84 1011.8
20260905201642 74 18 6.0 9.0 0.00 0.13 0.13 85 1011.7
20260905201141 75 29 3.0 5.0 0.00 0.13 0.13 85 1011.7
20260905200637 75 8 6.0 8.0 0.00 0.13 0.13 84 1011.6
20260905200132 75 32 1.0 2.0 0.00 0.13 0.13 84 1011.7
20260905195630 76 346 5.0 6.0 0.00 0.13 0.13 84 1011.7
20260905195126 76 48 3.0 5.0 0.00 0.13 0.13 84 1011.3
20260905194621 76 17 2.0 5.0 0.00 0.13 0.13 86 1011.4
20260905194120 77 15 7.0 8.0 0.00 0.13 0.13 83 1011.8
20260905193615 76 21 0.0 0.0 0.00 0.13 0.13 86 1011.7
20260905193110 76 334 5.0 6.0 0.00 0.13 0.13 86 1011.5
20260905192606 76 27 5.0 7.0 0.00 0.13 0.13 85 1011.5
20260905192102 75 48 1.0 1.0 0.00 0.13 0.13 88 1011.6
20260905191600 75 12 2.0 2.0 0.00 0.13 0.13 88 1011.8
20260905191059 75 35 3.0 5.0 0.00 0.13 0.13 88 1011.7
20260905190557 75 28 5.0 5.0 0.00 0.13 0.13 89 1011.6
20260905190056 75 40 1.0 2.0 0.00 0.13 0.13 90 1011.5
20260905185556 75 42 0.0 1.0 0.00 0.13 0.13 90 1011.5
20260905185050 75 48 1.0 2.0 0.00 0.13 0.13 90 1011.7
20260905184545 75 348 3.0 3.0 0.00 0.13 0.13 89 1011.9
20260905184044 75 39 1.0 1.0 0.00 0.13 0.13 90 1011.8
20260905183543 74 15 2.0 2.0 0.00 0.13 0.13 91 1011.8
20260905183039 74 34 2.0 2.0 0.00 0.13 0.13 93 1011.9
20260905182538 74 59 0.0 0.0 0.00 0.13 0.13 95 1012.0
20260905182032 73 55 2.0 2.0 0.00 0.13 0.13 97 1011.7
20260905181527 73 51 1.0 1.0 0.00 0.13 0.13 99 1011.7
20260905181027 73 31 0.0 0.0 0.00 0.13 0.13 99 1012.1
20260905180522 72 23 1.0 2.0 0.00 0.13 0.13 99 1011.9
20260905180017 72 37 0.0 0.0 0.00 0.13 0.13 99 1012.2
20260905175516 72 78 0.0 0.0 0.00 0.13 0.13 99 1012.2
20260905175012 72 77 0.0 0.0 0.00 0.13 0.13 99 1012.1
20260905174507 72 77 0.0 0.0 0.00 0.13 0.13 99 1012.2
20260905174003 72 77 0.0 0.0 0.00 0.13 0.13 99 1012.0
20260905173459 72 77 0.0 0.0 0.00 0.13 0.13 99 1012.2
20260905172954 71 77 0.0 0.0 0.00 0.13 0.13 99 1012.3
20260905172452 72 78 0.0 0.0 0.00 0.13 0.13 99 1011.8
20260905171948 71 78 0.0 0.0 0.07 0.13 0.13 99 1012.3
20260905171444 71 78 0.0 0.0 0.24 0.13 0.13 99 1012.2
20260905170941 71 78 0.0 0.0 0.28 0.12 0.12 99 1012.1
20260905170436 71 57 0.0 0.0 0.12 0.09 0.09 99 1012.3
20260905165935 71 55 0.0 0.0 0.07 0.07 0.07 98 1012.3
20260905165430 71 58 0.0 0.0 0.31 0.07 0.07 98 1012.2
20260905164926 71 77 0.0 1.0 0.24 0.06 0.06 96 1012.3
20260905164420 72 37 4.0 5.0 0.07 0.02 0.02 95 1012.5
20260905163915 72 53 1.0 1.0 0.00 0.01 0.01 93 1012.3
20260905163412 73 48 1.0 2.0 0.00 0.01 0.01 92 1012.3
20260905162908 73 56 1.0 1.0 0.00 0.01 0.01 93 1012.0
20260905162402 74 99 0.0 0.0 0.00 0.01 0.01 92 1012.3
20260905161857 74 94 0.0 1.0 0.00 0.01 0.01 90 1012.2
20260905161356 75 94 1.0 1.0 0.00 0.01 0.01 89 1012.2
20260905160854 75 126 1.0 1.0 0.00 0.01 0.01 88 1012.5
20260905160349 76 31 0.0 0.0 0.00 0.01 0.01 89 1012.2
20260905155843 77 31 1.0 1.0 0.00 0.01 0.01 87 1012.5
20260905155343 77 184 0.0 0.0 0.00 0.01 0.01 86 1012.3
20260905154842 77 78 0.0 0.0 0.00 0.01 0.01 87 1012.4
20260905154338 76 76 0.0 0.0 0.00 0.01 0.01 88 1012.4
20260905153833 75 70 0.0 0.0 0.00 0.01 0.01 87 1012.3
20260905153330 75 72 0.0 0.0 0.00 0.01 0.01 88 1012.2
20260905152824 75 44 0.0 0.0 0.00 0.01 0.01 90 1012.1
20260905152323 75 33 0.0 0.0 0.00 0.01 0.01 90 1012.1
20260905151818 75 53 0.0 0.0 0.00 0.01 0.01 89 1012.1
20260905151314 75 88 0.0 0.0 0.00 0.01 0.01 90 1012.1
20260905150814 75 88 0.0 0.0 0.00 0.01 0.01 91 1012.0
20260905150313 75 94 0.0 0.0 0.00 0.01 0.01 90 1011.9
20260905145810 75 133 0.0 0.0 0.00 0.01 0.01 90 1012.1
20260905145306 74 131 1.0 1.0 0.00 0.01 0.01 92 1012.0
20260905144804 74 110 0.0 0.0 0.00 0.01 0.01 93 1012.0
20260905144300 73 36 0.0 0.0 0.00 0.01 0.01 94 1012.0
20260905143758 74 56 0.0 0.0 0.00 0.01 0.01 95 1012.1
20260905143253 73 55 0.0 0.0 0.00 0.01 0.01 97 1012.0
20260905142751 72 107 0.0 0.0 0.00 0.01 0.01 99 1012.0
20260905142246 71 95 0.0 0.0 0.00 0.01 0.01 99 1011.8
20260905141742 72 123 1.0 2.0 0.00 0.01 0.01 99 1011.7
20260905141238 71 63 1.0 1.0 0.00 0.01 0.01 99 1011.8
20260905140733 71 28 0.0 0.0 0.00 0.01 0.01 99 1011.7
20260905140227 70 231 0.0 0.0 0.00 0.01 0.01 99 1011.8
20260905135726 71 203 0.0 0.0 0.00 0.01 0.01 99 1012.1
20260905135223 71 174 0.0 0.0 0.00 0.01 0.01 99 1011.9
20260905134722 70 174 0.0 0.0 0.00 0.01 0.01 99 1012.2
20260905134221 70 151 0.0 0.0 0.00 0.01 0.01 99 1012.0
20260905133716 70 111 0.0 0.0 0.00 0.01 0.01 99 1012.1
20260905133211 70 136 0.0 0.0 0.00 0.01 0.01 99 1011.9
20260905132710 70 166 0.0 0.0 0.00 0.01 0.01 99 1012.0
20260905132206 69 167 0.0 0.0 0.00 0.01 0.01 99 1012.3
20260905131701 69 163 0.0 0.0 0.00 0.01 0.01 99 1012.4
20260905131155 69 146 0.0 0.0 0.00 0.01 0.01 99 1012.5
20260905130650 69 128 0.0 0.0 0.00 0.01 0.01 99 1012.1
20260905130150 69 118 0.0 0.0 0.00 0.01 0.01 99 1012.2
20260905125644 69 142 0.0 0.0 0.00 0.01 0.01 99 1012.0
20260905125140 69 121 0.0 0.0 0.00 0.01 0.01 99 1012.0
20260905124636 69 147 0.0 0.0 0.00 0.01 0.01 99 1011.7
20260905124132 69 135 0.0 1.0 0.00 0.01 0.01 99 1011.9
20260905123627 69 83 0.0 0.0 0.00 0.01 0.01 99 1012.0
20260905123124 69 60 0.0 0.0 0.00 0.01 0.01 99 1012.2
20260905122618 69 59 0.0 0.0 0.00 0.01 0.01 99 1012.1
20260905122119 68 49 0.0 0.0 0.00 0.01 0.01 99 1012.1
20260905121613 68 49 0.0 0.0 0.00 0.01 0.01 99 1012.0
20260905121109 68 49 0.0 0.0 0.00 0.01 0.01 99 1011.9
20260905120608 68 49 0.0 0.0 0.00 0.01 0.01 99 1011.8
20260905115602 68 49 0.0 0.0 0.00 0.01 0.01 99 1011.7
20260905115056 68 49 0.0 0.0 0.00 0.01 0.01 99 1011.7
20260905114556 68 49 0.0 0.0 0.00 0.01 0.01 99 1011.5
20260905114055 68 49 0.0 0.0 0.00 0.01 0.01 99 1011.7
20260905113550 68 49 0.0 0.0 0.00 0.01 0.01 99 1011.6
20260905113045 68 49 0.0 0.0 0.00 0.01 0.01 99 1011.5
20260905112541 68 49 0.0 0.0 0.00 0.01 0.01 99 1011.5
20260905112036 68 49 0.0 0.0 0.00 0.01 0.01 99 1011.4
20260905111531 68 49 0.0 0.0 0.00 0.01 0.01 99 1011.7
20260905111030 67 56 0.0 0.0 0.00 0.01 0.01 99 1011.6
20260905110529 67 75 0.0 0.0 0.00 0.01 0.01 99 1011.5
20260905110025 67 82 0.0 0.0 0.00 0.01 0.01 99 1011.7
20260905105519 68 96 0.0 0.0 0.05 0.01 0.01 99 1011.6
20260905105018 68 99 0.0 0.0 0.05 0.01 0.01 99 1011.7
20260905104515 68 99 0.0 0.0 0.00 0.00 0.00 99 1011.8
20260905104014 68 149 0.0 0.0 0.00 0.00 0.00 99 1011.7
20260905103509 68 150 0.0 0.0 0.00 0.00 0.00 99 1012.0
20260905103005 68 166 0.0 0.0 0.00 0.00 0.00 99 1012.2
20260905102501 68 166 0.0 0.0 0.00 0.00 0.00 99 1012.3
20260905101956 68 167 0.0 0.0 0.00 0.00 0.00 99 1012.4
20260905101455 67 140 0.0 0.0 0.00 0.00 0.00 99 1012.7
20260905100954 67 110 0.0 0.0 0.00 0.00 0.00 99 1012.8
20260905100450 67 108 0.0 0.0 0.00 0.00 0.00 99 1012.8
20260905095949 67 108 0.0 0.0 0.00 0.00 0.00 99 1012.9
20260905095444 67 108 0.0 0.0 0.00 0.00 0.00 99 1012.9
20260905094939 67 108 0.0 0.0 0.00 0.00 0.00 99 1012.7
20260905094435 67 108 0.0 0.0 0.00 0.00 0.00 99 1012.4
20260905093933 67 108 0.0 0.0 0.00 0.00 0.00 99 1012.3
20260905093429 67 108 0.0 0.0 0.00 0.00 0.00 99 1011.9
20260905092924 67 107 0.0 0.0 0.00 0.00 0.00 99 1011.9
20260905092419 67 107 0.0 0.0 0.00 0.00 0.00 99 1011.8
20260905091914 67 107 0.0 0.0 0.00 0.00 0.00 99 1011.4
20260905091409 67 107 0.0 0.0 0.00 0.00 0.00 99 1011.6
20260905090908 67 107 0.0 0.0 0.00 0.00 0.00 99 1011.2
20260905090404 67 107 0.0 0.0 0.00 0.00 0.00 99 1011.0
20260905085903 67 107 0.0 0.0 0.00 0.00 0.00 99 1011.3
20260905085403 67 107 0.0 0.0 0.00 0.00 0.00 99 1011.3
20260905084859 67 107 0.0 0.0 0.00 0.00 0.00 99 1011.3
20260905084357 67 107 0.0 0.0 0.00 0.00 0.00 99 1011.3
20260905083853 67 107 0.0 0.0 0.00 0.00 0.00 99 1011.4
20260905083348 67 107 0.0 0.0 0.00 0.00 0.00 99 1011.4
20260905082844 67 107 0.0 0.0 0.00 0.00 0.00 99 1011.2
20260905082340 67 107 0.0 0.0 0.00 0.00 0.00 99 1011.1
20260905081835 67 106 0.0 0.0 0.00 0.00 0.00 99 1010.8
20260905081330 67 106 0.0 0.0 0.00 0.00 0.00 99 1010.4
20260905080829 67 106 0.0 0.0 0.00 0.00 0.00 99 1010.7
20260905080324 67 106 0.0 0.0 0.00 0.00 0.00 99 1010.7
20260905075822 67 106 0.0 0.0 0.00 0.00 0.00 99 1010.9
20260905075322 67 106 0.0 0.0 0.00 0.00 0.00 99 1010.9
20260905074821 67 106 0.0 0.0 0.00 0.00 0.00 99 1010.9
20260905074317 67 106 0.0 0.0 0.00 0.00 0.00 99 1011.2
20260905073812 67 106 0.0 0.0 0.00 0.00 0.00 99 1011.2
20260905073308 67 106 0.0 0.0 0.00 0.00 0.00 99 1011.2
20260905072802 67 106 0.0 0.0 0.00 0.00 0.00 99 1011.0
20260905072257 67 106 0.0 0.0 0.00 0.00 0.00 99 1010.9
20260905071754 67 106 0.0 0.0 0.00 0.00 0.00 99 1011.0
20260905071249 67 106 0.0 0.0 0.00 0.00 0.00 99 1011.2
20260905070744 67 106 0.0 0.0 0.00 0.00 0.00 99 1011.2
20260905070241 67 106 0.0 0.0 0.00 0.00 0.00 99 1011.3
20260905065739 67 99 0.0 0.0 0.00 0.00 0.00 99 1011.2
20260905065239 67 99 0.0 0.0 0.00 0.00 0.00 99 1011.1
20260905064734 67 99 0.0 0.0 0.00 0.00 0.00 99 1011.2
20260905064229 67 99 0.0 0.0 0.00 0.00 0.00 99 1011.3
20260905063728 67 99 0.0 0.0 0.00 0.00 0.00 99 1011.3
20260905063224 67 99 0.0 0.0 0.00 0.00 0.00 99 1011.7
20260905062720 67 98 0.0 0.0 0.00 0.00 0.00 99 1011.6
20260905062214 67 98 0.0 0.0 0.00 0.00 0.00 99 1011.7
20260905061713 67 97 0.0 0.0 0.00 0.00 0.00 99 1011.9
20260905061208 67 97 0.0 0.0 0.00 0.00 0.00 99 1011.6
20260905060703 67 96 0.0 0.0 0.00 0.00 0.00 99 1012.0
20260905060200 68 96 0.0 0.0 0.00 0.00 0.00 99 1012.1
20260905055658 68 97 0.0 0.0 0.00 0.00 0.00 99 1011.9
20260905055154 67 96 0.0 0.0 0.00 0.00 0.00 99 1012.1
20260905054649 68 97 0.0 0.0 0.00 0.00 0.00 99 1012.2
20260905054145 67 97 0.0 0.0 0.00 0.00 0.00 99 1012.4
20260905053644 67 97 0.0 0.0 0.00 0.00 0.00 99 1012.2
20260905053140 67 97 0.0 0.0 0.00 0.00 0.00 99 1012.5
20260905052639 67 96 0.0 0.0 0.00 0.00 0.00 99 1012.4
20260905052134 67 96 0.0 0.0 0.00 0.00 0.00 99 1012.5
20260905051629 67 96 0.0 0.0 0.00 0.00 0.00 99 1012.7
20260905051126 67 97 0.0 0.0 0.00 0.00 0.00 99 1012.6
20260905050622 67 96 0.0 0.0 0.00 0.00 0.00 99 1012.5
20260905050119 67 97 0.0 0.0 0.00 0.00 0.00 99 1012.4
20260905045618 67 96 0.0 0.0 0.00 0.00 0.00 99 1012.6
20260905045114 67 96 0.0 0.0 0.00 0.00 0.00 99 1012.3
20260905044613 68 96 0.0 0.0 0.00 0.00 0.00 99 1012.5
20260905044108 68 96 0.0 0.0 0.00 0.00 0.00 99 1012.2
20260905043607 68 96 0.0 0.0 0.00 0.00 0.00 99 1012.4
20260905043102 68 94 0.0 0.0 0.00 0.00 0.00 99 1012.6
20260905042601 68 93 0.0 0.0 0.00 0.00 0.00 99 1012.7
20260905042056 68 93 0.0 0.0 0.00 0.00 0.00 99 1012.7
20260905041552 68 93 0.0 0.0 0.00 0.00 0.00 99 1012.6
20260905041047 68 93 0.0 0.0 0.00 0.00 0.00 99 1012.6
20260905040547 68 93 0.0 0.0 0.00 0.00 0.00 99 1012.7
20260905040045 68 93 0.0 0.0 0.00 0.00 0.00 99 1012.6
20260905035541 68 93 0.0 0.0 0.00 0.09 0.09 99 1012.6
20260905035038 68 94 0.0 0.0 0.00 0.09 0.09 99 1012.6
20260905034533 68 93 0.0 0.0 0.00 0.09 0.09 99 1012.5
20260905034033 68 93 0.0 0.0 0.00 0.09 0.09 99 1012.6
20260905033527 68 93 0.0 0.0 0.00 0.09 0.09 99 1012.7
20260905033023 68 93 0.0 0.0 0.00 0.09 0.09 99 1012.7
20260905032518 68 93 0.0 0.0 0.00 0.09 0.09 99 1012.4
20260905032013 68 93 0.0 0.0 0.00 0.09 0.09 99 1012.4
20260905031509 68 93 0.0 0.0 0.00 0.09 0.09 99 1012.6
20260905031008 68 93 0.0 0.0 0.00 0.09 0.09 99 1012.6
20260905030504 68 93 0.0 0.0 0.00 0.09 0.09 99 1012.6
20260905030002 69 93 0.0 0.0 0.00 0.09 0.09 99 1012.5
20260905025458 69 93 0.0 0.0 0.00 0.09 0.09 99 1012.4
20260905024955 69 93 0.0 0.0 0.00 0.09 0.09 99 1012.4
20260905024454 69 93 0.0 0.0 0.00 0.09 0.09 99 1012.5
20260905023950 69 93 0.0 0.0 0.00 0.09 0.09 99 1012.6
20260905023445 69 93 0.0 0.0 0.00 0.09 0.09 99 1012.7
20260905022944 69 93 0.0 0.0 0.00 0.09 0.09 99 1012.7
20260905022439 69 93 0.0 0.0 0.00 0.09 0.09 99 1012.6
20260905021935 69 93 0.0 0.0 0.00 0.09 0.09 99 1012.3
20260905021435 69 93 0.0 0.0 0.00 0.09 0.09 99 1012.6
20260905020930 69 93 0.0 0.0 0.00 0.09 0.09 99 1012.4
20260905020429 69 93 0.0 0.0 0.00 0.09 0.09 99 1012.4
20260905015924 70 93 0.0 0.0 0.00 0.09 0.09 99 1012.4
20260905015422 70 92 0.0 0.0 0.00 0.09 0.09 99 1012.7
20260905014921 70 92 0.0 0.0 0.00 0.09 0.09 99 1012.5
20260905014417 70 93 0.0 0.0 0.00 0.09 0.09 99 1012.6
20260905013912 70 92 0.0 0.0 0.00 0.09 0.09 99 1012.6
20260905013409 70 92 0.0 0.0 0.00 0.09 0.09 99 1012.7
20260905012904 70 92 0.0 0.0 0.00 0.09 0.09 99 1012.7
20260905012359 70 92 0.0 0.0 0.00 0.09 0.09 99 1012.7
20260905011856 70 92 0.0 0.0 0.00 0.09 0.09 99 1012.6
20260905011351 70 92 0.0 0.0 0.00 0.09 0.09 99 1012.7
20260905010846 71 92 0.0 0.0 0.00 0.09 0.09 99 1012.6
20260905010341 70 92 0.0 0.0 0.00 0.09 0.09 99 1012.5
20260905005837 71 92 0.0 0.0 0.00 0.09 0.09 99 1012.5
20260905005333 71 92 0.0 0.0 0.00 0.09 0.09 99 1012.5
20260905004828 71 93 0.0 0.0 0.00 0.09 0.09 99 1012.6
20260905004323 71 92 0.0 0.0 0.00 0.09 0.09 99 1012.6
20260905003818 71 92 0.0 0.0 0.00 0.09 0.09 99 1012.4
20260905003314 72 92 0.0 0.0 0.00 0.09 0.09 99 1012.4
20260905002815 72 92 0.0 0.0 0.00 0.09 0.09 99 1012.4
20260905002309 72 92 0.0 0.0 0.00 0.09 0.09 99 1012.6
20260905001804 72 92 0.0 0.0 0.00 0.09 0.09 99 1012.6
20260905001304 73 92 0.0 0.0 0.00 0.09 0.09 99 1012.6
20260905000759 73 92 0.0 0.0 0.00 0.09 0.09 98 1012.5
20260905000255 73 92 0.0 0.0 0.00 0.09 0.09 98 1012.7
20260904235749 73 92 0.0 0.0 0.00 0.09 0.09 97 1012.3
20260904235244 74 92 0.0 0.0 0.00 0.09 0.09 96 1012.5
20260904234739 74 92 0.0 0.0 0.00 0.09 0.09 96 1012.4
20260904234234 75 92 0.0 0.0 0.00 0.09 0.09 95 1012.5
20260904233730 75 92 0.0 0.0 0.00 0.09 0.09 94 1012.6
20260904233226 75 92 0.0 0.0 0.00 0.09 0.09 93 1012.6